Starlink 5666

operational
NORAD ID: 55349 Int'l Des: 2023-013 Owner: SPXS Country: US Constellation: starlink
LEOCIRCULAR

Über Starlink 5666

Beschreibung wird geladen...

Live-Position

3D-Globus wird geladen...

Nächste Überflüge

Höhenverlauf

Altitude vs Time

uPlot chart will show altitude changes over time

Zweizeiliger Elementsatz

1 55349U 23013U 25352.14647442 -.00000575 00000-0 -27464-4 0 9990
2 55349 43.0063 23.3757 0001327 267.4922 92.5768 15.02533769159447
Epoch: 18. Dez. 2025 • Age: 13 hours

Aktueller Status

Höhe 558.4 km
Geschwindigkeit 7.58 km/s
Subsatellitenpunkt 7.94°N, 56.53°E
Startdatum 26. Jan. 2023
Alter 2.8 years
Typ internet

Technische Details

Klassifizierung Payload
Masse 305.00 kg
Trockenmasse 290.00 kg
Gesamtmasse 305.00 kg
Länge 0.20 m
Durchmesser 2.80 m
Spannweite 9.00 m
Form Box + pan
Hersteller SPXS
Bus-Typ Starlink
Phasenstatus In Orbit
Besitzer/Staat SPXS/US

Große Konstellationen

Loading constellations...